Change the Weather History Date:

Wednesday, July 17, 2013

  Actual Average Record
Temperature  
Mean Temperature 81 °F 74 °F  
Max Temperature 91 °F 85 °F 99 °F (1988)
Min Temperature 70 °F 64 °F 49 °F (2014)
Degree Days  
Heating Degree Days 0 0  
Month to date heating degree days 0 0  
Since 1 June heating degree days 14 24  
Since 1 July heating degree days 0 0  
Cooling Degree Days 16 10  
Month to date cooling degree days 147 170  
Year to date cooling degree days 521 469  
Since 1 June cooling degree days 353 386  
Growing Degree Days 30 (Base 50)    
Moisture  
Dew Point 71 °F    
Average Humidity 72    
Maximum Humidity 93    
Minimum Humidity 50    
Precipitation  
Precipitation 0.00 in 0.16 in 0.95 in (1992)
Month to date precipitation 1.18 2.49  
Year to date precipitation 21.97 22.72  
Sea Level Pressure  
Sea Level Pressure 30.27 in    
Wind  
Wind Speed 3 mph (NNW)    
Max Wind Speed 10 mph    
Max Gust Speed 14 mph    
Visibility 8 miles    
Events      
T = Trace of Precipitation, MM = Missing Value Source: NWS Daily Summary

Daily Weather History Graph

Daily Weather History Graph

Search for Another Location

Airport or City:

Trip Planner

Search our weather history database for the weather conditions in past years. The results will help you decide how hot, cold, wet, or windy it might be!

Date:

Astronomy

Jul. 17, 2013 Rise Set
Actual Time 6:26 AM EDT 9:08 PM EDT
Civil Twilight 5:54 AM EDT 9:40 PM EDT
Nautical Twilight 5:14 AM EDT 10:20 PM EDT
Astronomical Twilight 4:29 AM EDT 11:05 PM EDT
Moon 3:56 PM EDT (7/17) 1:33 AM EDT (7/17)
Length of Visible Light 15h 45m
Length of Day
14h 42m
Waxing Gibbous, 67% of the Moon is Illuminated
Jul 17
Waxing Gibbous
Jul 22
Full
Jul 29
Last Quarter
Aug 6
New
Aug 14
First Quarter

Hourly Weather History & Observations

Time (EDT) Temp. Heat Index Dew Point Humidity Pressure Visibility Wind Dir Wind Speed Gust Speed Precip Events Conditions
12:53 AM 75.0 °F - 72.0 °F 90% 30.29 in 9.0 mi Calm Calm - N/A   Clear
1:53 AM 73.9 °F - 72.0 °F 93% 30.28 in 7.0 mi Calm Calm - N/A   Clear
2:53 AM 73.0 °F - 71.1 °F 93% 30.27 in 5.0 mi Calm Calm - N/A   Clear
3:53 AM 71.1 °F - 69.1 °F 93% 30.28 in 6.0 mi Calm Calm - N/A   Clear
4:32 AM 71.6 °F - 69.8 °F 94% 30.32 in 1.0 mi Calm Calm - N/A   Clear
4:48 AM 69.8 °F - 69.8 °F 100% 30.32 in 3.0 mi Calm Calm - N/A   Clear
4:53 AM 71.1 °F - 69.1 °F 93% 30.29 in 7.0 mi Calm Calm - N/A   Clear
4:58 AM 71.6 °F - 69.8 °F 94% 30.32 in 1.8 mi Calm Calm - N/A   Clear
5:16 AM 71.6 °F - 69.8 °F 94% 30.33 in 3.0 mi Calm Calm - N/A   Clear
5:53 AM 72.0 °F - 70.0 °F 93% 30.30 in 3.0 mi Calm Calm - N/A   Clear
6:53 AM 72.0 °F - 70.0 °F 93% 30.31 in 5.0 mi Calm Calm - N/A   Clear
7:53 AM 77.0 °F - 72.0 °F 84% 30.32 in 9.0 mi Calm Calm - N/A   Clear
8:53 AM 79.0 °F - 72.0 °F 79% 30.33 in 10.0 mi NNW 4.6 mph - N/A   Clear
9:53 AM 82.9 °F 88.8 °F 73.0 °F 72% 30.33 in 10.0 mi North 5.8 mph - N/A   Clear
10:53 AM 84.9 °F 90.1 °F 71.1 °F 63% 30.32 in 10.0 mi North 6.9 mph - N/A   Clear
11:53 AM 87.1 °F 92.8 °F 71.1 °F 59% 30.31 in 10.0 mi NNW 6.9 mph - N/A   Partly Cloudy
12:53 PM 89.1 °F 95.0 °F 71.1 °F 55% 30.30 in 10.0 mi NNW 6.9 mph - N/A   Partly Cloudy
1:53 PM 90.0 °F 95.4 °F 70.0 °F 52% 30.29 in 10.0 mi North 4.6 mph - N/A   Partly Cloudy
2:53 PM 90.0 °F 95.4 °F 70.0 °F 52% 30.27 in 10.0 mi North 6.9 mph - N/A   Clear
3:53 PM 90.0 °F 95.4 °F 70.0 °F 52% 30.25 in 10.0 mi WNW 6.9 mph - N/A   Clear
4:53 PM 90.0 °F 93.6 °F 68.0 °F 48% 30.23 in 10.0 mi Calm Calm - N/A   Clear
5:53 PM 90.0 °F 94.5 °F 69.1 °F 50% 30.21 in 10.0 mi NNW 8.1 mph - N/A   Clear
6:53 PM 88.0 °F 92.9 °F 70.0 °F 55% 30.19 in 10.0 mi NW 5.8 mph - N/A   Clear
7:53 PM 86.0 °F 92.2 °F 72.0 °F 63% 30.19 in 10.0 mi NW 4.6 mph - N/A   Clear
8:53 PM 82.0 °F 87.4 °F 73.0 °F 74% 30.19 in 10.0 mi Calm Calm - N/A   Clear
9:53 PM 79.0 °F - 71.1 °F 77% 30.20 in 10.0 mi Calm Calm - N/A   Clear
10:53 PM 78.1 °F - 71.1 °F 79% 30.22 in 10.0 mi Calm Calm - N/A   Clear
11:53 PM 77.0 °F - 71.1 °F 82% 30.21 in 10.0 mi Calm Calm - N/A   Clear